Location: Ajisawe
(8.4333°N, 4.3833°E)
Time: 01:32:44
(UTC+00:00)

Courier 1B Rocket - Pass Details

Date: 23 April 2021
Orbit: 920 x 1202 km, 28.3° (Epoch: 13 May)

Event Time Altitude Azimuth Distance (km) Brightness Sun altitude
Rises 15:45:40 0° 255° (WSW) 3,548 8.9 29.8°
Reaches altitude 10° 15:48:21 10° 260° (W) 2,601 8.6 29.1°
Maximum altitude 15:54:20 49° 334° (NNW) 1,180 6.3 27.7°
Drops below altitude 10° 16:00:29 10° 48° (NE) 2,668 7.0 26.2°
Sets 16:03:16 0° 54° (NE) 3,648 7.6 25.5°
